Starlink 3637

operational
NORAD ID: 51799 Int'l Des: 2022-017 Owner: SPXS Country: US Constellation: starlink
LEOCIRCULAR

关于 Starlink 3637

正在加载描述...

实时位置

正在加载3D地球...

即将过境

高度历史

Altitude vs Time

uPlot chart will show altitude changes over time

两行轨道根数

1 51799U 22017AH 25353.20816002 .00000469 00000-0 47569-4 0 9994
2 51799 53.2189 350.4175 0001383 88.8445 271.2706 15.08838470211775
Epoch: Dec 19, 2025 • Age: 15 hours

当前状态

高度 541.4 km
速度 7.60 km/s
星下点 33.77°N, 3.58°W
发射日期 Feb 25, 2022
运行时间 3.8 years
类型 internet

技术详情

分类 Payload
质量 297.00 kg
干质量 275.00 kg
总质量 297.00 kg
长度 0.20 m
直径 2.80 m
跨度 9.00 m
形状 Box + pan
制造商 SPXS
平台类型 Starlink
阶段状态 In Orbit
所有者/国家 SPXS/US

大型星座

Loading constellations...